NKS1833 KDTW-KDFW

Flight info

Callsign NKS1833
Flight time N/A
Altitude 36000
Route SNDRS3 BGHRT STL RZC FSM RRNET SEEVR4
Aircraft A320/M-SDE3FGHIRWY/LB1

Departure

Time 2026-05-04 01:23
Airport Detroit Metropolitan Wayne County Airport (KDTW)

Arrival

Time N/A
Airport Dallas Fort Worth International Airport (KDFW)
Time Latitude Longitude Altitude Speed Heading
2026-05-04 00:48 42.22467 -83.34984 650 ft 0 kts 148°
2026-05-04 01:09 42.22468 -83.34985 642 ft 1 kts 148°
2026-05-04 01:09 42.22482 -83.34997 651 ft 3 kts 144°
2026-05-04 01:10 42.22499 -83.35013 650 ft 2 kts 145°
2026-05-04 01:10 42.22512 -83.35025 651 ft 3 kts 134°
2026-05-04 01:10 42.22522 -83.35045 649 ft 3 kts 93°
2026-05-04 01:10 42.22518 -83.35068 652 ft 3 kts 56°
2026-05-04 01:11 42.22507 -83.35088 652 ft 2 kts 48°
2026-05-04 01:11 42.22504 -83.35093 650 ft 1 kts 48°
2026-05-04 01:11 42.22503 -83.35094 650 ft 0 kts 48°
2026-05-04 01:17 42.22507 -83.35088 651 ft 3 kts 48°
2026-05-04 01:17 42.22531 -83.35052 650 ft 6 kts 44°
2026-05-04 01:18 42.22575 -83.35018 649 ft 8 kts 28°
2026-05-04 01:18 42.22633 -83.34976 649 ft 10 kts 29°
2026-05-04 01:18 42.22702 -83.34924 649 ft 12 kts 29°
2026-05-04 01:18 42.22779 -83.34869 649 ft 13 kts 28°
2026-05-04 01:19 42.22865 -83.34805 649 ft 15 kts 29°
2026-05-04 01:19 42.22966 -83.34786 649 ft 16 kts 346°
2026-05-04 01:19 42.23050 -83.34866 652 ft 16 kts 297°
2026-05-04 01:19 42.23061 -83.34895 650 ft 0 kts 298°
2026-05-04 01:21 42.23062 -83.34899 650 ft 2 kts 298°
2026-05-04 01:21 42.23075 -83.34930 650 ft 5 kts 298°
2026-05-04 01:21 42.23094 -83.34975 651 ft 7 kts 298°
2026-05-04 01:22 42.23090 -83.35031 650 ft 8 kts 205°
2026-05-04 01:22 42.23036 -83.35068 651 ft 10 kts 210°
2026-05-04 01:22 42.22873 -83.35187 649 ft 55 kts 208°
2026-05-04 01:22 42.22371 -83.35555 650 ft 107 kts 208°
2026-05-04 01:23 42.21584 -83.36131 651 ft 149 kts 208°
2026-05-04 01:23 42.20642 -83.36819 1076 ft 152 kts 209°
2026-05-04 01:23 42.19705 -83.37511 1676 ft 155 kts 210°
2026-05-04 01:23 42.18767 -83.38206 2332 ft 153 kts 212°
2026-05-04 01:24 42.17794 -83.38929 2624 ft 172 kts 212°
2026-05-04 01:24 42.16681 -83.39780 2850 ft 195 kts 217°
2026-05-04 01:24 42.15529 -83.40945 3194 ft 218 kts 221°
2026-05-04 01:24 42.14321 -83.42276 3795 ft 230 kts 223°
2026-05-04 01:25 42.13073 -83.43672 4614 ft 235 kts 224°
2026-05-04 01:25 42.11798 -83.45097 5370 ft 242 kts 225°
2026-05-04 01:25 42.10482 -83.46563 6109 ft 248 kts 225°
2026-05-04 01:25 42.09132 -83.48059 6776 ft 256 kts 224°
2026-05-04 01:26 42.07747 -83.49588 6969 ft 257 kts 224°
2026-05-04 01:26 42.06374 -83.51097 7005 ft 257 kts 224°
2026-05-04 01:26 42.04986 -83.52621 7015 ft 257 kts 224°
2026-05-04 01:26 42.03600 -83.54139 7015 ft 256 kts 224°
2026-05-04 01:27 42.02226 -83.55646 7019 ft 255 kts 224°
2026-05-04 01:27 42.00836 -83.57139 7010 ft 257 kts 220°
2026-05-04 01:27 41.99249 -83.58328 7325 ft 264 kts 213°
2026-05-04 01:27 41.97615 -83.59476 8148 ft 266 kts 213°
2026-05-04 01:28 41.95968 -83.60644 8895 ft 270 kts 213°
2026-05-04 01:28 41.94293 -83.61833 9635 ft 274 kts 212°
2026-05-04 01:28 41.92587 -83.63044 10274 ft 281 kts 212°
2026-05-04 01:28 41.90790 -83.64325 10459 ft 304 kts 212°
2026-05-04 01:29 41.88860 -83.65695 10703 ft 321 kts 212°
2026-05-04 01:29 41.86882 -83.67086 11252 ft 327 kts 212°
2026-05-04 01:29 41.84845 -83.68507 11862 ft 332 kts 211°
2026-05-04 01:29 41.82782 -83.69943 12486 ft 336 kts 212°
2026-05-04 01:30 41.80701 -83.71400 13086 ft 340 kts 212°
2026-05-04 01:30 41.78587 -83.72883 13681 ft 345 kts 212°
2026-05-04 01:30 41.76451 -83.74385 14230 ft 349 kts 212°
2026-05-04 01:30 41.74289 -83.75906 14776 ft 352 kts 212°
2026-05-04 01:31 41.72115 -83.77435 15332 ft 355 kts 212°
2026-05-04 01:31 41.69912 -83.78981 15874 ft 358 kts 212°
2026-05-04 01:31 41.67721 -83.80608 16431 ft 361 kts 214°
2026-05-04 01:31 41.65553 -83.82329 16974 ft 363 kts 216°
2026-05-04 01:32 41.63387 -83.84105 17528 ft 366 kts 216°
2026-05-04 01:32 41.61209 -83.85909 18072 ft 369 kts 216°
2026-05-04 01:32 41.59030 -83.87704 18538 ft 374 kts 216°
2026-05-04 01:32 41.56807 -83.89515 19037 ft 377 kts 216°
2026-05-04 01:33 41.54548 -83.91331 19557 ft 379 kts 215°
2026-05-04 01:33 41.52263 -83.93154 20081 ft 382 kts 215°
2026-05-04 01:33 41.49970 -83.94981 20606 ft 385 kts 215°
2026-05-04 01:33 41.47668 -83.96814 21122 ft 387 kts 215°
2026-05-04 01:34 41.45348 -83.98665 21619 ft 390 kts 215°
2026-05-04 01:34 41.43037 -84.00511 22119 ft 392 kts 215°
2026-05-04 01:34 41.40682 -84.02389 22592 ft 395 kts 215°
2026-05-04 01:34 41.38320 -84.04269 23090 ft 397 kts 215°
2026-05-04 01:35 41.35943 -84.06162 23568 ft 399 kts 216°
2026-05-04 01:35 41.33554 -84.08063 23961 ft 401 kts 216°
2026-05-04 01:35 41.31146 -84.09978 24346 ft 403 kts 216°
2026-05-04 01:35 41.28745 -84.11929 24724 ft 403 kts 219°
2026-05-04 01:36 41.26589 -84.14264 25081 ft 399 kts 230°
2026-05-04 01:36 41.24798 -84.17060 25452 ft 395 kts 240°
2026-05-04 01:36 41.23424 -84.20209 25820 ft 392 kts 250°
2026-05-04 01:36 41.22407 -84.23554 26180 ft 392 kts 252°
2026-05-04 01:37 41.21421 -84.26891 26536 ft 393 kts 252°
2026-05-04 01:37 41.20407 -84.30279 26865 ft 395 kts 252°
2026-05-04 01:37 41.19383 -84.33672 27224 ft 396 kts 252°
2026-05-04 01:37 41.18351 -84.37083 27584 ft 398 kts 252°
2026-05-04 01:38 41.17317 -84.40507 27917 ft 400 kts 252°
2026-05-04 01:38 41.16281 -84.43939 28267 ft 401 kts 253°
2026-05-04 01:38 41.15247 -84.47384 28603 ft 403 kts 253°
2026-05-04 01:38 41.14208 -84.50859 28935 ft 405 kts 253°
2026-05-04 01:39 41.13177 -84.54293 29258 ft 406 kts 253°
2026-05-04 01:39 41.12123 -84.57777 29595 ft 408 kts 253°
2026-05-04 01:39 41.11066 -84.61254 30078 ft 406 kts 253°
2026-05-04 01:39 41.10124 -84.64764 30484 ft 400 kts 259°
2026-05-04 01:40 41.09503 -84.68335 30870 ft 397 kts 262°
2026-05-04 01:40 41.08905 -84.71900 31291 ft 395 kts 262°
2026-05-04 01:40 41.08306 -84.75451 31696 ft 394 kts 262°
2026-05-04 01:40 41.07705 -84.79000 32100 ft 393 kts 262°
2026-05-04 01:41 41.07107 -84.82525 32501 ft 392 kts 262°
2026-05-04 01:41 41.06511 -84.86049 32899 ft 390 kts 262°
2026-05-04 01:41 41.05917 -84.89554 33298 ft 389 kts 262°
2026-05-04 01:41 41.05324 -84.93050 33693 ft 388 kts 262°
2026-05-04 01:42 41.04740 -84.96476 34042 ft 387 kts 262°